GW0544 Weather Reports


Display with metric or nautical units.
time (UTC)temp
F
wind
direction
speed
MPH
gust
MPH
rain 1hr
in
rain 24hr
in
rain mn
in
humidity
%
barometer
mb
20260506014558 54 337 5.0 14.0 0.00 0.21 0.21 67 1015.7
20260506013055 54 331 3.0 14.0 0.00 0.21 0.21 66 1015.6
20260506011554 56 320 5.0 13.0 0.00 0.21 0.21 64 1015.4
20260506010051 55 316 5.0 15.0 0.00 0.21 0.21 65 1015.1
20260506004558 55 300 5.0 15.0 0.00 0.21 0.21 64 1015.2
20260506003050 54 293 10.0 19.0 0.00 0.21 0.21 65 1015.2
20260506001609 55 319 9.0 19.0 0.00 0.21 0.21 63 1015.2
20260506000051 56 340 5.0 16.0 0.00 0.21 0.21 61 1015.1
20260505234554 57 278 7.0 15.0 0.00 0.21 0.21 61 1015.0
20260505233057 57 219 5.0 15.0 0.00 0.21 0.21 60 1014.9
20260505231555 56 274 8.0 17.0 0.00 0.21 0.21 61 1015.1
20260505224550 57 317 7.0 14.0 0.00 0.21 0.21 61 1015.3
20260505223058 57 267 4.0 12.0 0.00 0.21 0.21 63 1015.2
20260505221553 57 313 5.0 13.0 0.00 0.21 0.21 64 1015.5
20260505220056 58 302 7.0 16.0 0.00 0.21 0.21 60 1015.7
20260505214601 57 306 6.0 17.0 0.00 0.21 0.21 63 1015.8
20260505213059 56 298 7.0 18.0 0.00 0.21 0.21 69 1015.8
20260505211553 55 327 6.0 12.0 0.00 0.21 0.21 70 1016.0
20260505210056 56 292 5.0 13.0 0.00 0.21 0.21 70 1016.1
20260505204553 56 292 6.0 14.0 0.00 0.21 0.21 70 1016.1
20260505203056 55 309 4.0 12.0 0.00 0.21 0.21 72 1016.1
20260505201601 54 256 4.0 15.0 0.00 0.21 0.21 75 1016.3
20260505200053 53 309 8.0 16.0 0.00 0.21 0.21 76 1016.5
20260505194549 53 284 6.0 14.0 0.00 0.21 0.21 77 1016.3
20260505193057 51 306 5.0 15.0 0.00 0.21 0.21 79 1016.7
20260505191558 51 285 5.0 14.0 0.00 0.21 0.21 80 1016.7
20260505190113 52 273 7.0 12.0 0.00 0.21 0.21 80 1016.5
20260505184606 52 263 5.0 12.0 0.00 0.21 0.21 79 1016.3
20260505183056 52 311 6.0 11.0 0.00 0.21 0.21 81 1016.5
20260505181559 51 326 3.0 9.0 0.00 0.21 0.21 83 1016.3
20260505180056 51 261 3.0 14.0 0.00 0.21 0.21 80 1016.2
20260505174554 50 298 6.0 15.0 0.00 0.21 0.21 81 1016.1
20260505173052 50 326 6.0 15.0 0.00 0.21 0.21 83 1016.0
20260505171555 50 352 5.0 12.0 0.00 0.21 0.21 85 1015.9
20260505170105 49 334 6.0 11.0 0.01 0.21 0.21 85 1015.7
20260505164558 49 314 5.0 13.0 0.01 0.21 0.21 87 1015.7
20260505163102 48 288 4.0 14.0 0.01 0.21 0.21 87 1015.7
20260505161555 48 198 6.0 13.0 0.01 0.21 0.21 87 1015.6
20260505153106 48 265 6.0 11.0 0.00 0.20 0.20 88 1015.3
20260505151552 49 273 5.0 10.0 0.00 0.20 0.20 88 1015.2
20260505150111 48 305 7.0 14.0 0.01 0.20 0.20 90 1014.9
20260505140122 48 333 6.0 12.0 0.03 0.19 0.19 89 1014.4
20260505124608 48 289 4.0 11.0 0.06 0.16 0.16 89 1013.7
20260505123114 48 267 4.0 10.0 0.05 0.15 0.15 89 1013.7
20260505121556 48 221 4.0 10.0 0.03 0.13 0.13 89 1013.7
20260505120059 48 244 6.0 13.0 0.03 0.11 0.11 89 1013.6
20260505114603 48 271 5.0 15.0 0.04 0.10 0.10 89 1013.5
20260505113101 48 267 4.0 12.0 0.07 0.10 0.10 88 1013.5
20260505111603 48 312 7.0 13.0 0.09 0.10 0.10 88 1013.6
20260505101601 48 258 2.0 6.0 0.01 0.01 0.01 86 1013.8
20260505100100 48 249 0.0 3.0 0.01 0.01 0.01 85 1013.9
20260505094551 48 250 1.0 3.0 0.01 0.01 0.01 85 1014.1
20260505093052 48 248 1.0 6.0 0.00 0.00 0.00 84 1014.3
20260505091551 48 274 2.0 4.0 0.00 0.00 0.00 83 1014.2
20260505090107 48 268 2.0 8.0 0.00 0.00 0.00 82 1014.4
20260505084551 48 249 2.0 7.0 0.00 0.00 0.00 80 1014.4
20260505083103 49 286 2.0 8.0 0.00 0.00 0.00 81 1014.7
20260505081555 49 286 2.0 7.0 0.00 0.00 0.00 82 1014.9
20260505080057 48 265 2.0 4.0 0.00 0.00 0.00 81 1015.2
20260505074557 48 250 1.0 4.0 0.00 0.00 0.00 80 1015.2
20260505073100 48 286 3.0 9.0 0.00 0.00 0.00 80 1015.3
20260505071557 49 263 2.0 7.0 0.00 0.00 0.00 80 1015.5
20260505070054 48 294 2.0 8.0 0.00 0.00 0.00 80 1015.6
20260505064554 48 285 1.0 3.0 0.00 0.00 0.00 79 1015.7
20260505063059 49 0 2.0 5.0 0.00 0.00 0.00 79 1015.7
20260505061601 49 281 1.0 5.0 0.00 0.00 0.00 79 1015.7
20260505060058 49 276 2.0 7.0 0.00 0.00 0.00 78 1016.0
20260505054559 49 259 2.0 6.0 0.00 0.00 0.00 79 1015.9
20260505053058 49 269 3.0 9.0 0.00 0.00 0.00 79 1016.1
20260505051733 49 283 3.0 8.0 0.00 0.00 0.00 80 1016.4
20260505050126 49 285 3.0 9.0 0.00 0.00 0.00 79 1016.3
20260505041605 49 281 3.0 10.0 0.00 0.00 0.00 77 1016.3
20260505034553 50 290 4.0 10.0 0.00 0.00 0.00 75 1016.2
20260505033054 51 284 4.0 11.0 0.00 0.00 0.00 74 1016.0
20260505031559 51 305 4.0 11.0 0.00 0.00 0.00 74 1015.9
20260505030055 51 297 4.0 14.0 0.00 0.00 0.00 73 1015.8
20260505024552 52 352 5.0 14.0 0.00 0.00 0.00 72 1015.6
20260505023054 53 290 6.0 12.0 0.00 0.00 0.00 71 1015.6
20260505021554 54 333 7.0 13.0 0.00 0.00 0.00 69 1015.2
20260505020055 55 338 5.0 12.0 0.00 0.00 0.00 68 1015.2